Flock 4be-24

operational
NORAD ID: 60505 Int'l Des: 2024-149 Owner: PLAN Country: US Constellation: planet
LEOCIRCULARRETROGRADESSO

Flock 4be-24について

説明を読み込み中...

リアルタイム位置

3D地球を読み込み中...

次回通過

高度履歴

Altitude vs Time

uPlot chart will show altitude changes over time

軌道要素

1 60505U 24149AP 26071.17033760 .00022147 00000-0 56934-3 0 9995
2 60505 97.3753 154.6677 0003126 261.4302 98.6590 15.39286155 87421
Epoch: Mar 12, 2026 • Age: 14 hours

現在のステータス

高度 451.7 km
速度 7.64 km/s
衛星直下点 18.09°N, 139.53°E
打ち上げ日 Aug 16, 2024
運用期間 1.5 years
タイプ earth observation

技術仕様

分類 Payload
質量 5.70 kg
乾燥質量 5.70 kg
総質量 5.70 kg
長さ 0.30 m
直径 0.10 m
スパン 0.30 m
形状 Box+2 pan
製造者 PLAN
バスタイプ Cubesat 3U
フェーズステータス In Orbit
所有者/国 PLAN/US

大規模コンステレーション

Loading constellations...